Overview Statistics Trail Chart Weather Telemetry Raw packets
 

This is the latest recevied weather packets stored in our database for station/object 9W2IJB-3. If no packets are shown the sender has not sent any weather packets the latest 10 day(s).

<< 29 30 31 32 33 >>
Time Temp. Humidity Pressure Rain* Wind** Luminosity Snow
1787781923 26.11° C 78% 1024.1 hPa - - - -
1787780723 25.56° C 78% 1023.9 hPa - - - -
1787779566 25.56° C 77% 1023.8 hPa - - - -
1787779523 25.56° C 77% 1023.8 hPa - - - -
1787778323 25.56° C 77% 1023.9 hPa - - - -
1787777123 25.56° C 76% 1023.6 hPa - - - -
1787775923 25.56° C 74% 1023.2 hPa - - - -
1787774723 25° C 73% 1023.1 hPa - - - -
1787773523 25.56° C 75% 1023.1 hPa - - - -
1787772323 25° C 75% 1023.3 hPa - - - -
1787771123 25.56° C 75% 1023.4 hPa - - - -
1787769957 25.56° C 76% 1023.4 hPa - - - -
1787769923 25.56° C 76% 1023.4 hPa - - - -
1787768723 25.56° C 77% 1023.5 hPa - - - -
1787767523 25.56° C 76% 1023.9 hPa - - - -
1787766323 25.56° C 76% 1023.9 hPa - - - -
1787765123 25.56° C 75% 1024.3 hPa - - - -
1787763923 25.56° C 75% 1024.6 hPa - - - -
1787762728 25.56° C 73% 1024.7 hPa - - - -
1787761522 25° C 73% 1024.8 hPa - - - -
1787760322 25.56° C 70% 1025 hPa - - - -
1787759122 25.56° C 68% 1025.1 hPa - - - -
1787757925 25.56° C 69% 1025.1 hPa - - - -
1787756719 25.56° C 67% 1025 hPa - - - -
1787755522 25.56° C 66% 1024.8 hPa - - - -

* Rain since midnight (hover to see other rain measurements)
** Current wind speed in m/s (hover to see current wind gust speed)